User: anonymous   Login
Location: *
(60.1759°S, 155.0663°W)
Time: 14:26:41
(UTC+00:00)
Language:

Meteor 1-27 Rocket - Orbit

View from above orbital plane
View from above orbital plane
View from above satellite
View from above satellite

Ground track
Ground track

The orbit data is extracted from the following two-line orbital elements,

1  9904U 77024B   19320.63282797 +.00000178 +00000-0 +98081-4 0  9997
2  9904 081.2624 357.1444 0055172 003.4066 356.7467 14.06879441186652
Epoch (UTC): 16 November 2019 15:11:16
Eccentricity: 0.0055172
inclination: 81.2624°
perigee height: 830 km
apogee height: 910 km
right ascension of ascending node: 357.1444°
argument of perigee: 3.4066°
revolutions per day: 14.06879441
mean anomaly at epoch: 356.7467°
orbit number at epoch: 18665

The dashed part of the orbit path shows where the satellite is in the earth's shadow,  

DLR